Terminal Aerodrome Forecast
Issued by NWS Green Bay, WI

Home | Current Version | Previous Version | Graphics & Text | Print | Product List | Glossary On
Versions: 1 2 3 4 5 6 7 8 9 10 11 12 13 14 15 16 17 18 19 20 21 22 23 24 25 26 27 28 29 30 31 32 33 34 35 36
000
FTUS43 KGRB 231700
TAFGRB
TAF
KGRB 231728Z 2318/2418 23013G21KT P6SM SCT015 OVC080 WS017/25040KT
      TEMPO 2320/2322 -SNPL SCT040 OVC060
     FM232200 25009KT P6SM SCT030 OVC050
     FM240000 26007KT P6SM SCT050 SCT100
     FM240500 29007KT P6SM BKN025=

USA.gov is the U.S. government's official web portal to all federal, state and local government web resources and services.